Showing default

LEMUR-2 PEGGY-2004, 68479

Orbit data source: Space-Track

LEMUR-2 PEGGY-2004, 68479 is a payload satellite owned by Spire (LU) in SSO that was launched on Mon, 30 Mar 2026 UTC via an FALCON 9 launch vehicle from the Air Force Western Test Range (AFWTR). Payload-class satellites include a variety of spacecraft equipped with specific instruments for various scientific and technological missions. These include communications satellites like Starlink; space stations such as the ISS; scientific satellites like the Hubble; Earth observation satellites from companies like Planet Labs, Umbra, and HawkEye 360; GPS; miniature CubeSats for education and research; and military/defense satellites.

Loading next visibility...
Identifier
68479, 2026-067BR
Orbit
SSO
Country
Flag of LULU / LUXE
Related business
Manufacturer
Spire/Glasgow
Mission
Operational spacecraft
Bus & Motor
CUBESAT 3U, Unknown motor
Mass
7.6 kg wet, 7.6 kg dry
Launch date (UTC)
2026-03-30 (2 months ago)
Launch vehicle
FALCON 9
Launch site
Air Force Western Test Range (AFWTR)
Object type
Payload
Rocket body
Debris
Shape & HBR
Unknown shape, 1.1 m
Radar Cross Section
Medium (>0.1 m² and <1 m²)

Expand to show TLE details & history
Last TLE update: 4 days ago

TLE from 4 days ago
0 LEMUR-2 PEGGY-2004
1 68479U 26067BR  26153.80662751  .00007003  00000-0  68641-3 0  9995
2 68479  97.7539 112.2957 0001217  37.5275 322.6029 14.92553604  9588
Epoch: 2026-06-02T19:21Z
TLE epoch observation values (Epoch: 2026-06-02T19:21:32.616Z)
Latitude
-0.00005°
Longitude
-69.3645°
Altitude
592.346 km
Speed
7.564 km/s
True Right ascension
07h 29m 10s
True Declination
0° 00' 00"
Sunlit
Object was in daylight at epoch
Visualization orbit readout
Latitude
Unknown
Longitude
Unknown
Altitude
Unknown
Speed
Unknown
Apparent Right ascension
Unknown
Apparent Declination
Unknown
Sunlit
N/A
Visualization observer readout
Local Sidereal Time
03:18:36
Azimuth
Unknown
Elevation
Unknown
Doppler factor
Unknown
Orbital elements
Apogee altitude
587.842 km
Perigee altitude
586.146 km
Semi-major axis
6,965.131 km
Eccentricity
0.00012
Inclination
97.7539°
RAAN
112.2957°
Arg. of periapsis
37.5275°
True anomaly
322.59443°
Mean anomaly
322.6029°
Eccentric anomaly
322.59866°
Mean motion
3.73378 °/min
Orbital period
96.42 mins
BSTAR
0.00068641
Loading maneuver chart data...
Computing Atmospheric mass density...
Loading historical data...
Loading historical data...
Loading historical data...
Loading historical data...
Loading historical data...
Loading historical data...
Loading historical data...

Documentation

Showing up to 5 results
|